Barking Sands, HI

2:38 PM HST on April 22, 2018 (GMT -1000)
Barking Sands PMRF

Weather History for PHBK - April, 2014

Change the Weather History Date:

Wednesday, April 30, 2014

  Actual Average Record
Temperature  
Mean Temperature 74 °F -  
Max Temperature 80 °F 84 °F 88 °F (1968)
Min Temperature 68 °F 62 °F 59 °F (1976)
Cooling Degree Days 10    
Growing Degree Days 24 (Base 50)    
Moisture  
Dew Point 61 °F    
Average Humidity 64    
Maximum Humidity 75    
Minimum Humidity 52    
Precipitation  
Precipitation 0.00 in - - ()
Sea Level Pressure  
Sea Level Pressure 30.04 in    
Wind  
Wind Speed 10 mph (North)    
Max Wind Speed 18 mph    
Max Gust Speed 23 mph    
Visibility 10 miles    
Events      
Averages and records for this station are not official NWS values.
T = Trace of Precipitation, MM = Missing Value Source: NWS Daily Summary

Daily Weather History Graph

Daily Weather History Graph

Search for Another Location

Airport or City:

Astronomy

Apr. 30, 2014 Rise Set
Actual Time 6:07 AM HST 7:05 PM HST
Civil Twilight 5:44 AM HST 7:28 PM HST
Nautical Twilight 5:16 AM HST 7:56 PM HST
Astronomical Twilight 4:48 AM HST 8:24 PM HST
Moon 7:22 AM HST (4/30) 8:48 PM HST (4/30)
Length of Visible Light 13h 44m
Length of Day
12h 57m
Waxing Crescent, 3% of the Moon is Illuminated
Apr 30
Waxing Crescent
May 6
First Quarter
May 14
Full
May 21
Last Quarter
May 28
New

Hourly Weather History & Observations

Time (HST) Temp. Heat Index Dew Point Humidity Pressure Visibility Wind Dir Wind Speed Gust Speed Precip Events Conditions
12:56 AM 72.0 °F - 63.0 °F 73% 30.04 in 10.0 mi North 18.4 mph - N/A   Scattered Clouds
1:56 AM 71.1 °F - 62.1 °F 73% 30.03 in 10.0 mi NNE 16.1 mph 21.9 mph N/A   Overcast
2:56 AM 71.1 °F - 62.1 °F 73% 30.01 in 10.0 mi North 13.8 mph 23.0 mph N/A   Mostly Cloudy
3:56 AM 71.1 °F - 62.1 °F 73% 30.01 in 10.0 mi ENE 4.6 mph - N/A   Overcast
4:56 AM 71.1 °F - 61.0 °F 70% 30.02 in 10.0 mi NNE 5.8 mph - N/A   Mostly Cloudy
5:56 AM 69.1 °F - 61.0 °F 75% 30.03 in 10.0 mi NNE 4.6 mph - N/A   Partly Cloudy
6:56 AM - - - N/A% 30.05 in 10.0 mi NE 4.6 mph - N/A   Clear
7:56 AM 73.0 °F - 62.1 °F 68% 30.06 in 10.0 mi SE 3.5 mph - N/A   Clear
8:56 AM 75.0 °F - 62.1 °F 64% 30.07 in 10.0 mi West 3.5 mph - N/A   Partly Cloudy
9:56 AM 75.0 °F - 60.1 °F 60% 30.07 in 10.0 mi NW 6.9 mph - N/A   Partly Cloudy
10:56 AM 78.1 °F - 61.0 °F 56% 30.07 in 10.0 mi NW 11.5 mph - N/A   Clear
11:56 AM 79.0 °F - 60.1 °F 52% 30.06 in 10.0 mi Variable 4.6 mph - N/A   Partly Cloudy
12:56 PM 78.1 °F - 62.1 °F 58% 30.04 in 10.0 mi NW 10.4 mph - N/A   Partly Cloudy
1:56 PM 80.1 °F 81.2 °F 62.1 °F 54% 30.03 in 10.0 mi NNW 11.5 mph - N/A   Clear
2:56 PM 78.1 °F - 61.0 °F 56% 30.01 in 10.0 mi WNW 5.8 mph - N/A   Clear
3:56 PM 78.1 °F - 61.0 °F 56% 29.99 in 10.0 mi SSW 8.1 mph - N/A   Clear
4:56 PM 77.0 °F - 62.1 °F 60% 29.99 in 10.0 mi WSW 9.2 mph - N/A   Clear
5:56 PM 75.9 °F - 63.0 °F 64% 30.00 in 10.0 mi WSW 12.7 mph - N/A   Clear
6:56 PM 75.0 °F - 63.0 °F 66% 30.01 in 10.0 mi WSW 8.1 mph - N/A   Scattered Clouds
7:56 PM 73.9 °F - 62.1 °F 66% 30.03 in 10.0 mi Calm Calm - N/A   Scattered Clouds
8:56 PM 70.0 °F - 61.0 °F 73% 30.05 in 10.0 mi ENE 4.6 mph - N/A   Clear
9:56 PM 71.1 °F - 55.9 °F 59% 30.06 in 10.0 mi ENE 4.6 mph - N/A   Partly Cloudy
10:56 PM 69.1 °F - 55.9 °F 63% 30.06 in 10.0 mi ENE 3.5 mph - N/A   Clear
11:56 PM 68.0 °F - 55.9 °F 65% 30.06 in 10.0 mi ENE 4.6 mph - N/A   Clear